RH
21 26 50 61 86 90 79 76 98 81 70 77 69 59 71 68 59 64 71 56 47 47 40 39 42 56 56 64 78 54 55 48 49 43 39 40 37 35 37 36 32 38 45 38 21 16 18 24 47
38 23 28 68 66 100 92 78 88 92 92 66 72 68 70 63 50 61 62 55 53 47 37 36 38 52 57 62 79 56 53 51 51 43 45 42 39 43 43 40 42 36 45 51 33 20 18 19 23
19 38 22 32 53 73 100 85 60 97 96 83 70 65 89 84 66 63 57 61 53 52 42 35 36 45 56 64 69 54 56 52 50 41 42 50 46 46 46 46 43 47 44 56 48 28 20 20 21
18 19 18 21 36 62 100 100 79 89 81 99 86 67 74 81 86 72 70 57 54 55 44 38 39 42 49 50 61 56 58 56 49 44 42 52 54 50 49 52 44 46 48 56 53 33 25 22 24
17 17 17 16 24 39 62 100 100 85 78 84 93 85 86 82 76 82 74 64 61 58 47 41 41 45 48 58 56 58 54 52 45 46 50 53 53 63 58 50 55 54 57 62 48 33 26 24 26
17 17 17 16 19 26 51 97 100 99 94 84 89 87 86 73 64 77 82 79 63 58 52 44 44 43 51 52 48 49 51 46 40 45 50 49 52 59 61 40 56 63 67 66 50 36 30 25 26
16 15 17 18 17 21 41 88 92 100 100 97 93 93 82 70 69 71 82 81 74 62 59 51 49 48 52 51 52 52 54 40 37 45 46 44 58 56 47 38 47 46 69 80 53 36 39 36 31
15 15 16 18 16 19 28 54 79 100 100 100 90 95 84 69 63 66 69 84 79 68 64 64 56 55 66 60 58 51 45 42 41 52 44 46 57 48 33 37 46 48 40 49 64 38 40 41 40
14 14 14 16 17 18 26 44 74 94 100 100 93 95 82 65 68 64 73 85 83 71 69 70 65 57 62 60 59 54 52 54 57 56 46 54 64 54 28 32 31 36 41 37 37 42 38 37 36
17 14 14 16 18 19 29 33 57 86 100 100 100 91 78 73 68 64 84 85 81 76 75 76 74 64 67 65 62 63 64 62 64 59 51 62 63 56 36 35 36 41 46 47 43 44 46 47 46
19 16 14 13 17 21 31 28 41 60 99 100 100 100 97 89 74 68 89 87 85 83 77 79 75 71 80 86 86 87 71 68 62 55 61 63 76 79 50 47 50 53 59 59 57 54 50 49 55
17 19 12 12 17 26 36 27 30 38 61 99 100 100 100 100 86 80 89 92 90 80 84 94 91 81 90 96 100 92 98 79 75 64 67 83 98 66 63 62 62 65 71 66 59 100 98 77 62
16 20 14 15 23 31 32 29 27 32 41 62 93 100 100 100 100 94 94 94 98 95 96 97 96 94 97 96 100 100 100 100 72 75 98 100 97 82 79 72 70 63 72 97 100 98 74 59 42
16 21 20 22 28 28 34 31 28 28 29 35 60 88 95 100 100 100 99 99 100 100 100 100 100 95 99 100 98 87 83 72 100 100 100 99 78 82 72 67 63 80 94 77 71 76 41 21 20
17 22 29 27 31 26 31 31 26 26 26 25 31 62 88 100 90 87 97 95 100 100 100 99 95 100 90 90 94 99 100 100 100 100 88 85 74 70 63 62 63 54 37 26 22 22 19 17 16
21 27 33 29 27 29 33 31 28 26 24 22 24 30 66 99 100 92 88 92 100 94 99 100 100 100 100 100 100 100 100 98 85 85 83 72 68 73 57 52 47 28 20 18 18 18 18 16 14
23 31 32 31 30 30 32 30 27 24 22 20 21 23 31 57 98 100 96 85 95 98 99 100 100 100 100 100 100 100 94 84 78 70 63 60 62 46 32 24 22 20 18 19 21 19 17 15 12
25 34 37 36 34 34 32 34 28 26 24 21 20 21 21 31 46 96 99 100 100 90 86 100 100 100 98 94 100 93 78 67 60 54 45 52 38 25 21 21 20 20 23 24 21 18 16 13 11
29 44 42 41 45 46 49 41 32 30 27 22 21 20 20 22 25 54 87 94 75 75 78 81 79 86 76 81 88 82 63 56 47 31 26 25 20 21 23 20 22 24 23 19 17 16 12 10 10
33 50 54 56 55 66 61 49 44 40 29 27 26 23 23 24 25 35 50 51 71 82 76 69 78 78 71 90 93 64 46 34 24 23 22 23 24 22 24 26 24 21 18 15 14 13 11 11 14
39 53 57 68 66 82 76 56 48 42 38 32 29 26 26 26 27 26 31 30 37 40 50 68 80 72 71 72 61 46 27 21 24 29 28 26 30 31 28 24 19 16 15 14 15 12 14 18 21
42 57 59 64 78 84 76 81 72 48 39 37 33 28 27 27 26 25 26 28 31 38 51 65 69 59 60 51 42 30 24 26 30 27 30 29 26 25 20 17 15 14 15 16 15 18 21 24 22
42 55 74 72 87 82 96 87 71 51 44 40 33 29 28 27 24 25 29 30 34 41 49 53 51 49 46 33 28 27 27 27 31 31 29 27 19 16 15 14 15 19 19 22 22 25 28 24 18
42 49 64 70 75 88 92 89 68 58 48 40 34 30 30 28 25 27 30 34 38 42 48 51 48 44 34 32 34 34 33 33 34 32 25 20 18 16 15 14 15 17 22 24 28 30 26 21 20
39 45 61 73 75 84 81 86 64 52 50 42 35 31 29 25 26 28 32 41 48 52 53 51 45 38 40 41 40 35 36 39 33 27 23 21 18 15 13 13 14 17 20 28 32 29 23 21 21
41 49 57 65 65 71 74 81 58 50 47 42 40 37 34 35 35 34 32 32 38 45 50 49 45 42 40 44 51 50 40 34 31 26 24 25 22 16 13 14 16 19 27 32 33 25 24 23 23
58 68 74 75 77 80 84 82 65 58 51 44 42 44 47 49 49 42 39 38 39 42 43 47 56 57 50 64 57 49 36 31 29 29 29 28 25 20 16 17 20 27 32 31 25 26 25 26 24
75 92 92 95 88 80 76 80 79 62 55 49 46 40 39 40 43 38 38 48 54 51 57 68 56 51 56 48 44 34 33 32 33 36 38 32 30 31 24 22 20 21 23 25 27 29 31 30 29
57 82 89 89 87 90 85 71 64 64 58 56 53 46 42 36 37 43 67 77 63 59 52 46 50 35 34 36 35 36 36 40 43 50 53 54 50 45 38 34 26 24 24 26 28 34 34 34 35
59 68 80 100 100 96 96 84 82 73 67 61 53 47 42 40 46 56 59 49 36 36 31 29 32 34 35 34 33 44 48 52 52 58 60 66 66 65 74 54 41 32 30 32 35 36 35 36 38
Wind_Speed
60 59 58 57 57 50 50 51 51 49 45 42 41 37 32 32 29 28 28 27 26 24 24 27 27 27 26 26 25 24 26 26 25 25 25 26 26 26 27 27 26 26 27 26 23 20 19 18 19
62 63 60 52 58 53 51 51 54 51 50 47 45 40 39 37 35 32 32 31 29 26 24 26 28 28 26 26 26 26 26 25 26 26 28 28 29 30 29 27 28 29 27 27 25 23 21 19 20
69 67 64 58 55 56 54 53 51 54 53 51 49 45 43 41 38 36 35 32 30 29 27 26 28 29 28 28 28 26 26 26 27 28 29 29 31 31 31 32 28 30 29 27 27 26 24 22 21
75 73 67 60 53 53 59 53 49 53 55 52 51 48 44 44 42 39 37 32 30 30 28 28 28 29 29 29 29 28 28 27 28 31 29 30 32 35 35 34 33 32 31 30 28 27 26 25 26
82 74 69 61 56 55 58 57 56 52 52 52 50 48 44 41 40 38 37 34 30 31 29 30 29 30 30 29 32 33 33 32 31 31 31 33 34 37 41 36 34 33 33 30 30 28 26 27 28
87 80 72 64 59 57 53 62 57 53 51 51 51 48 46 40 37 37 39 35 32 32 31 32 31 31 32 35 36 37 36 32 34 34 35 37 37 39 41 37 33 35 34 33 31 28 26 29 30
91 83 72 68 63 57 58 62 61 57 52 50 50 47 46 42 38 37 38 36 35 34 34 36 34 34 36 38 38 37 37 37 37 37 38 38 39 41 41 37 34 35 35 34 33 32 29 29 31
93 86 80 73 65 56 63 62 61 60 54 55 49 48 46 43 39 38 37 38 38 38 37 39 38 38 38 39 40 39 39 41 41 41 41 40 41 42 40 38 36 37 38 38 37 35 36 37 38
95 90 80 72 68 59 62 64 64 60 58 55 52 48 48 42 41 39 38 41 39 40 40 40 41 40 39 40 40 41 42 44 44 45 46 45 44 44 42 39 38 37 39 40 40 41 42 43 43
91 89 82 78 73 63 67 68 66 62 58 55 51 48 47 45 42 41 40 41 42 42 42 42 42 41 41 42 43 44 45 46 47 48 49 49 47 46 45 45 43 44 44 46 45 46 47 48 50
92 89 90 82 74 68 72 67 67 64 59 56 50 48 47 47 45 44 43 42 43 44 44 45 44 44 45 44 46 46 46 48 49 50 51 52 52 51 50 50 50 50 51 51 52 53 54 56 58
96 91 88 78 74 71 73 67 67 64 60 56 53 52 49 48 48 49 47 46 45 45 46 48 48 49 48 46 47 49 53 51 53 53 53 53 56 54 53 55 55 54 55 55 55 61 63 64 66
95 90 80 76 78 78 72 69 66 64 61 56 55 55 52 51 49 49 49 48 48 46 47 49 51 52 50 50 50 53 54 58 57 58 59 61 60 60 60 59 59 59 58 61 65 67 68 70 72
95 86 79 81 81 78 73 68 66 63 61 57 54 55 54 52 51 48 49 49 49 48 48 47 48 50 49 51 52 53 54 55 59 58 56 59 61 62 62 63 62 61 64 66 68 69 71 70 73
92 87 83 82 81 76 71 67 62 61 61 58 55 53 53 53 51 49 50 48 48 48 47 46 47 49 50 50 52 53 53 52 53 57 61 62 63 64 65 66 66 66 66 66 67 68 71 74 78
96 91 85 80 80 76 71 66 63 61 58 57 55 53 51 52 49 50 49 49 50 47 47 47 49 50 48 48 48 50 53 57 60 61 62 64 66 66 68 67 67 68 65 68 71 72 76 81 83
96 89 81 79 76 74 68 67 62 57 56 55 55 54 52 51 51 49 50 50 46 46 48 48 46 49 53 56 57 57 58 59 62 64 66 67 67 69 68 66 66 68 68 72 76 78 83 86 90
95 88 82 77 75 72 68 68 64 59 55 54 55 53 52 51 50 52 51 51 52 52 53 54 57 58 59 59 59 60 63 65 67 67 68 67 68 68 67 69 70 71 75 80 80 82 85 87 91
96 87 82 78 76 74 71 69 67 60 55 52 52 51 50 50 51 52 55 55 57 57 58 59 59 59 60 61 62 64 66 67 67 67 65 66 67 70 73 73 75 79 83 80 81 84 88 90 84
89 84 81 81 78 75 73 69 64 58 54 51 49 50 50 50 51 53 55 55 56 58 58 58 58 58 58 60 63 65 66 67 66 65 65 69 73 75 79 82 83 83 83 81 81 85 82 81 71
92 89 86 83 79 78 73 68 65 59 54 51 48 50 51 52 53 54 56 55 56 56 58 58 57 58 60 63 66 66 65 64 66 70 73 76 80 84 86 86 85 84 82 81 82 82 75 63 59
92 87 84 85 81 76 72 68 63 59 55 52 51 51 52 54 54 55 56 56 56 57 57 59 60 61 63 66 66 66 65 69 72 75 80 82 84 87 87 87 86 86 85 79 78 68 59 56 54
89 86 84 83 78 75 71 67 61 59 56 55 53 51 52 53 53 54 57 58 57 58 60 61 63 64 65 65 64 67 70 73 78 82 84 87 86 84 83 81 80 77 73 69 61 55 53 52 42
87 85 82 82 78 73 67 61 60 58 59 57 54 53 54 53 54 55 59 59 59 61 63 64 66 67 67 68 69 73 76 79 83 87 89 85 78 73 72 69 70 69 65 58 52 50 49 37 34
83 81 82 80 75 70 68 63 60 60 59 58 56 55 56 56 55 56 59 61 62 64 66 68 69 70 71 73 76 77 79 83 88 89 81 65 64 63 63 64 63 60 58 50 48 46 34 29 31
80 80 78 78 76 72 68 63 63 62 61 59 60 59 59 59 60 60 61 63 65 66 67 71 73 74 76 77 79 81 84 87 88 69 61 55 56 57 54 52 51 49 46 45 45 34 28 27 29
73 74 74 74 73 72 67 64 66 65 65 61 61 60 62 62 65 67 66 66 68 70 72 73 74 76 77 82 83 85 87 83 60 56 54 51 51 52 48 44 41 41 41 39 32 29 27 27 28
70 71 71 70 69 66 65 63 64 65 65 61 60 60 63 64 69 71 71 72 73 74 77 78 78 80 84 85 86 86 72 54 53 52 53 54 50 46 45 41 37 33 30 26 25 28 28 30 28
69 71 70 68 66 63 61 59 62 63 62 61 61 62 61 65 71 73 74 75 76 77 79 81 84 84 85 84 73 53 51 51 50 50 52 56 58 55 49 43 35 28 25 25 26 28 30 30 29
62 67 69 67 65 65 62 58 61 62 62 65 66 67 67 70 72 74 76 79 80 80 82 85 84 82 61 51 51 51 52 52 52 53 53 53 54 57 57 54 46 39 33 31 31 31 31 32 31
Wind_Direction
235 231 231 233 236 236 235 233 235 235 238 237 240 239 236 239 244 247 250 257 269 270 265 265 261 262 267 270 273 277 280 292 296 302 311 323 325 330 334 320 319 320 319 325 320 312 300 293 275
233 234 229 227 232 233 233 231 231 232 235 237 238 238 242 242 251 250 257 262 266 263 264 266 265 261 264 268 270 276 278 285 290 299 308 314 320 322 328 322 310 315 314 318 317 310 302 293 290
230 232 230 226 228 229 232 230 232 230 234 236 239 240 242 244 250 253 257 261 262 258 260 264 264 261 264 266 267 273 274 280 288 300 305 309 314 318 318 320 309 309 308 306 311 307 300 293 289
228 230 231 227 226 227 230 229 230 229 234 234 238 240 243 243 247 248 252 255 257 256 257 263 262 263 264 265 263 269 275 279 290 297 299 305 310 314 316 312 310 305 304 302 302 299 296 291 290
228 226 228 226 223 225 229 226 225 228 230 232 233 238 238 240 244 246 245 248 249 254 254 259 260 264 263 261 266 269 273 273 284 293 297 304 307 311 313 312 307 302 299 298 300 294 285 285 285
226 225 224 226 225 224 226 227 226 226 226 228 232 234 236 237 241 242 242 242 245 247 252 256 259 259 261 263 269 272 272 273 286 292 297 303 306 308 309 309 306 299 298 296 295 287 283 278 278
223 222 222 224 223 222 225 227 227 225 224 224 228 231 235 237 237 239 239 240 246 244 250 255 258 257 262 265 269 270 269 277 286 292 299 304 304 306 306 305 303 300 292 291 293 285 277 277 276
218 219 219 219 221 219 224 228 228 224 224 224 225 228 232 235 234 236 236 238 243 245 250 254 257 259 263 268 270 269 272 282 289 293 299 301 303 305 303 300 297 297 298 295 288 284 281 282 278
215 216 217 217 220 217 224 225 225 224 223 225 226 226 230 233 233 235 235 238 243 246 250 253 257 260 265 269 271 270 280 285 291 292 296 300 300 301 298 297 297 294 294 293 290 287 279 278 277
212 213 214 215 216 216 222 223 222 222 222 222 223 226 230 233 233 234 235 239 241 245 250 253 257 261 267 270 273 275 282 286 288 290 295 295 295 297 297 297 296 295 293 292 290 286 284 282 281
208 209 210 212 212 213 220 222 222 222 221 222 223 225 229 230 233 234 235 239 241 245 249 252 256 259 267 270 273 276 283 283 286 290 292 292 293 295 296 296 295 294 295 292 290 289 288 286 285
205 207 210 209 211 212 218 221 223 225 224 221 221 224 229 231 232 233 236 239 243 246 250 252 256 261 267 269 275 275 277 282 287 288 288 289 293 292 294 293 293 294 293 292 293 292 294 292 289
203 204 205 205 209 213 217 220 221 222 222 223 223 224 227 233 235 236 240 242 244 247 253 255 257 262 267 271 274 279 280 282 285 286 287 290 289 290 291 292 291 292 294 293 292 294 291 290 287
201 201 202 204 208 211 214 218 220 223 225 224 226 228 230 233 235 239 241 243 246 252 257 260 262 264 269 275 276 279 279 280 282 285 283 285 288 289 291 291 293 291 292 291 289 289 291 289 285
197 198 202 203 208 210 212 216 220 222 225 225 227 228 230 232 236 239 243 245 248 254 261 263 267 271 272 276 278 279 280 279 279 282 285 286 289 290 292 292 292 293 294 293 293 292 288 287 286
196 198 200 202 207 210 212 215 217 220 222 226 229 231 233 234 238 243 243 248 250 252 257 263 270 270 271 271 270 272 278 282 285 286 287 289 291 292 291 292 293 293 293 295 295 292 291 287 287
196 198 199 200 206 211 212 215 217 219 223 226 230 233 234 237 236 244 247 248 250 253 259 262 264 269 271 274 281 284 285 287 289 289 291 291 290 291 292 293 293 297 294 297 297 293 291 291 291
194 196 196 200 205 211 213 216 219 219 223 228 232 234 238 239 242 241 247 250 252 255 256 259 262 269 274 280 282 285 287 288 289 289 290 289 289 290 293 295 299 298 299 299 299 296 295 296 297
193 194 198 201 206 210 214 218 222 222 224 227 231 234 239 242 245 246 246 249 253 255 259 264 270 274 277 279 281 283 287 288 288 289 289 289 293 295 298 298 297 299 300 299 299 299 297 300 301
192 196 200 203 207 211 214 218 220 222 225 229 234 237 239 244 248 250 252 254 257 260 264 266 269 273 277 278 280 284 286 288 289 290 292 295 298 299 300 300 299 298 300 298 299 297 300 302 301
193 195 201 204 208 210 214 218 222 226 231 232 237 241 243 246 250 253 256 260 262 265 267 269 272 276 278 281 283 286 287 289 291 294 298 298 299 299 298 298 298 299 298 297 296 298 301 302 302
191 196 201 204 208 211 215 219 223 228 232 235 239 244 246 248 251 256 259 262 265 268 270 272 274 277 279 282 285 287 289 291 293 296 298 299 301 299 299 298 296 296 293 294 295 299 299 301 302
194 197 200 204 208 211 215 220 224 228 233 237 241 245 248 253 254 257 260 264 268 271 272 274 277 279 281 285 286 288 291 295 297 300 301 301 301 299 296 293 294 295 294 293 298 295 299 302 298
196 199 203 206 209 212 217 222 226 230 234 239 244 250 253 255 258 260 262 266 270 273 275 277 279 281 284 287 289 290 294 297 301 301 301 303 301 301 298 295 294 292 292 294 293 295 301 297 301
199 200 205 208 210 214 220 223 227 231 235 242 246 252 255 257 261 264 267 269 271 273 274 277 280 282 284 286 288 293 297 298 300 301 302 303 305 304 299 295 292 291 288 290 293 298 293 299 307
201 204 207 211 214 218 223 225 229 232 238 242 249 255 260 265 269 270 271 272 272 275 277 277 278 281 284 287 290 293 295 299 298 299 300 305 311 314 309 300 294 292 290 291 295 291 294 307 308
205 207 211 214 217 220 224 228 231 236 240 243 249 253 256 264 269 272 273 276 275 275 278 281 283 286 288 289 290 292 294 298 293 295 300 303 314 320 316 313 304 295 292 293 288 288 300 307 308
207 211 214 217 220 223 227 231 235 238 242 247 251 256 261 264 268 273 276 276 278 280 281 282 285 287 287 288 289 291 291 288 291 297 302 307 314 320 322 318 313 307 297 290 293 296 303 307 304
215 216 220 223 226 231 235 238 242 245 251 256 260 266 268 267 268 269 271 274 278 282 284 285 284 287 288 289 289 283 286 290 293 295 302 307 313 317 318 320 314 310 304 302 303 298 301 299 299
221 224 227 230 233 237 241 248 250 254 257 259 263 265 267 268 270 272 275 279 282 284 285 286 284 287 283 281 284 285 285 287 289 291 296 299 303 308 313 317 316 313 309 306 302 292 293 289 290